Torna al catalogo

FENGYUN 1C DEB

AttivoSSO
NORAD 31412·DEBRIS·🇨🇳 China

Lanciato May 10, 1999 da Taiyuan Satellite Launch Center

Loading…

Prossimi Passaggi (prossime 24 ore)

TLE

AggiornatoSource: Space-Track

Epoca: Sep 11, 2026, 06:37 UTC

1 31412U 99025BSY 26254.27578025  .00001591  00000-0  87932-3 0  9999
2 31412  98.5569 190.1692 0080760 280.1243  79.0827 14.11150026648343

Traccia FENGYUN 1C DEB in tempo reale con AllMySat

Download on the App Store